User: anonymous   Login
Location: Unspecified
(0.0000°N, 0.0000°E)
Time: 05:01:43
(UTC+02:00)
Language:

Cosmos 407 Rocket - Orbit

View from above orbital plane
View from above orbital plane
View from above satellite
View from above satellite

Ground track
Ground track

The orbit data is extracted from the following two-line orbital elements,

1 05175U 71035B   16181.85667312  .00000072  00000-0  32241-4 0  9994
2 05175  74.0476 137.4372 0028827  73.0920 287.3391 14.37808961364309
Epoch (UTC): 29 June 2016 20:33:36
Eccentricity: 0.0028827
inclination: 74.0476°
perigee height: 745 km
apogee height: 786 km
right ascension of ascending node: 137.4372°
argument of perigee: 73.0920°
revolutions per day: 14.37808961
mean anomaly at epoch: 287.3391°
orbit number at epoch: 36430

The dashed part of the orbit path shows where the satellite is in the earth's shadow,  

DLR